Weather in Sosnovka

Russia / Ulyanovsk Oblast     53°36′30″N   48°09′08″E
temp.,
°C
wind,
m/s
gust,
m/s
humid.,
%
clouds,
%
prec.,
mm/h
press.,
hPa
HPBL,
m
13 april, tue
tue1301:00+8e2290100 0.0 103413
04:00+7ese228925 0.0 103411
07:00+7ese228766 0.0 103512
10:00+12se366496 0.0 1035295
13:00+16se574464 0.0 1034768
16:00+18se57375 0.0 10321040
19:00+14se33545 0.0 103125
22:00+11se22625 0.0 103211
14 april, wed
wed1401:00+9se22710 0.0 103111
04:00+7ese22775 0.0 103110
07:00+7ese22791 0.0 103019
10:00+12ese57795 0.0 1029370
13:00+15se57645 0.0 1027824
16:00+17se57570 0.0 10251076
19:00+14ese37700 0.0 1024154
22:00+11se22810 0.0 102425
15 april, thu
thu1501:00+9ese22860 0.0 102311
04:00+8ese22840 0.0 102310
07:00+7ese22830 0.0 102212
10:00+13se34620 0.0 1021304
13:00+17se45500 0.0 1020722
16:00+19se344339 0.0 10181221
19:00+16ese225416 0.0 101812
22:00
16 april, fri
fri1601:00+11ese116954 0.0 101710
04:00+10ene117476 0.0 101710
07:00+10ene117497 0.0 101710
10:00+14e2256100 0.0 1017240
13:00+18ene2343100 0.0 1016837
16:00+19ene334017 0.0 10161829
19:00+14nne586834 0.4 1017324
22:00+10nne511845 0.0 1018401
17 april, sat
sat1701:00+8nne510885 0.0 1019348
04:00+6nne510899 0.0 1020353
07:00+5ne5108916 0.0 1021365
10:00+8ne687127 0.0 1021636
13:00+11ne784592 0.0 10221040
16:00+11ne78365 0.0 10221380
19:00+9ne69450 0.0 1023762
22:00+6nne39590 0.0 1024270